Location: Newark
(45.9925°N, 0.1936°E)
Time: 00:20:37
(UTC+00:00)

ISS - Visible Passes

Search period start: 21 August 2019 00:00
Search period end: 31 August 2019 00:00
Orbit: 410 x 420 km, 51.6° (Epoch: 21 August)

Date Brightness Start Highest point End Pass type
(mag) Time Alt. Az. Time Alt. Az. Time Alt. Az.
27 Aug -1.4 04:23:47 10° S 04:26:12 19° SE 04:28:37 10° E visible
28 Aug -1.0 03:36:27 10° SSE 03:37:36 11° SE 03:38:46 10° ESE visible
29 Aug -2.9 04:21:59 11° SW 04:25:01 44° SE 04:28:14 10° ENE visible
30 Aug -2.2 03:35:17 23° S 03:36:18 27° SE 03:39:12 10° E visible
